GW4572 Weather Reports


Display with metric or nautical units.
time (UTC)temp
F
wind
direction
speed
MPH
gust
MPH
rain 1hr
in
rain 24hr
in
rain mn
in
humidity
%
barometer
mb
20260509171448 59 245 4.0 4.0 0.00 0.00 0.00 53 1013.5
20260509170945 59 250 5.0 6.0 0.00 0.00 0.00 53 1013.8
20260509170440 58 246 4.0 6.0 0.00 0.00 0.00 54 1013.9
20260509165936 58 248 6.0 8.0 0.00 0.00 0.00 52 1013.8
20260509165430 58 234 2.0 6.0 0.00 0.00 0.00 54 1013.9
20260509164926 58 240 5.0 7.0 0.00 0.00 0.00 52 1014.0
20260509164422 58 270 6.0 7.0 0.00 0.00 0.00 53 1013.8
20260509163918 58 234 0.0 3.0 0.00 0.00 0.00 55 1013.8
20260509163416 57 243 1.0 6.0 0.00 0.00 0.00 55 1013.6
20260509162915 57 236 3.0 4.0 0.00 0.00 0.00 56 1014.1
20260509162414 58 234 5.0 7.0 0.00 0.00 0.00 55 1014.2
20260509161909 57 238 2.0 6.0 0.00 0.00 0.00 56 1014.2
20260509161406 57 235 3.0 4.0 0.00 0.00 0.00 56 1014.0
20260509160901 57 267 4.0 4.0 0.00 0.00 0.00 57 1014.3
20260509160357 57 278 4.0 7.0 0.00 0.00 0.00 57 1014.3
20260509155853 56 271 3.0 4.0 0.00 0.00 0.00 61 1014.4
20260509155349 56 254 3.0 6.0 0.00 0.00 0.00 62 1014.3
20260509154845 56 246 3.0 3.0 0.00 0.00 0.00 64 1014.4
20260509154342 56 235 0.0 3.0 0.00 0.00 0.00 64 1014.5
20260509153839 55 240 2.0 3.0 0.00 0.00 0.00 63 1014.6
20260509153336 54 258 1.0 2.0 0.00 0.00 0.00 64 1014.6
20260509152833 54 249 0.0 0.0 0.00 0.00 0.00 69 1014.4
20260509152329 55 261 1.0 2.0 0.00 0.00 0.00 67 1014.4
20260509151826 54 264 1.0 2.0 0.00 0.00 0.00 68 1014.4
20260509151322 55 76 0.0 2.0 0.00 0.00 0.00 68 1014.5
20260509150821 54 200 0.0 0.0 0.00 0.00 0.00 70 1014.3
20260509150318 54 220 0.0 0.0 0.00 0.00 0.00 71 1014.4
20260509145815 53 188 0.0 0.0 0.00 0.00 0.00 72 1014.4
20260509145315 53 243 0.0 1.0 0.00 0.00 0.00 72 1014.5
20260509144812 53 256 1.0 2.0 0.00 0.00 0.00 71 1014.5
20260509144308 53 265 0.0 0.0 0.00 0.00 0.00 72 1014.5
20260509143806 53 265 0.0 0.0 0.00 0.00 0.00 74 1014.5
20260509143303 52 263 0.0 1.0 0.00 0.00 0.00 72 1014.5
20260509142759 52 263 2.0 2.0 0.00 0.00 0.00 72 1014.7
20260509142255 52 254 1.0 2.0 0.00 0.00 0.00 74 1014.6
20260509141751 52 299 1.0 2.0 0.00 0.00 0.00 73 1014.5
20260509141248 52 271 3.0 3.0 0.00 0.00 0.00 75 1014.4
20260509140745 52 245 0.0 2.0 0.00 0.00 0.00 74 1014.6
20260509140242 51 236 0.0 2.0 0.00 0.00 0.00 75 1014.7
20260509135739 51 253 2.0 2.0 0.00 0.00 0.00 76 1014.6
20260509135237 51 249 0.0 0.0 0.00 0.00 0.00 75 1014.7
20260509134734 51 250 0.0 0.0 0.00 0.00 0.00 76 1014.5
20260509134231 50 250 0.0 0.0 0.00 0.00 0.00 76 1014.6
20260509133728 50 250 0.0 0.0 0.00 0.00 0.00 78 1014.4
20260509133225 50 268 0.0 0.0 0.00 0.00 0.00 77 1014.6
20260509132724 50 268 0.0 0.0 0.00 0.00 0.00 77 1014.4
20260509132222 50 268 0.0 0.0 0.00 0.00 0.00 77 1014.5
20260509131718 50 268 0.0 0.0 0.00 0.00 0.00 79 1014.5
20260509131215 50 268 0.0 0.0 0.00 0.00 0.00 78 1014.3
20260509130711 50 268 0.0 1.0 0.00 0.00 0.00 78 1014.2
20260509130207 50 268 1.0 2.0 0.00 0.00 0.00 78 1014.4
20260509125703 50 269 0.0 1.0 0.00 0.00 0.00 79 1014.3
20260509125200 49 265 2.0 2.0 0.00 0.00 0.00 80 1014.4
20260509124657 49 262 1.0 1.0 0.00 0.00 0.00 79 1014.4
20260509124154 49 275 0.0 0.0 0.00 0.00 0.00 79 1014.3
20260509123653 49 275 0.0 0.0 0.00 0.00 0.00 78 1014.2
20260509123149 49 262 1.0 2.0 0.00 0.00 0.00 78 1014.3
20260509122644 49 269 1.0 2.0 0.00 0.00 0.00 78 1014.5
20260509122141 49 267 1.0 2.0 0.00 0.00 0.00 78 1014.3
20260509121637 49 269 2.0 3.0 0.00 0.00 0.00 78 1014.4
20260509121136 49 272 1.0 2.0 0.00 0.00 0.00 77 1014.6
20260509120633 49 272 0.0 0.0 0.00 0.00 0.00 77 1014.4
20260509120132 49 272 0.0 0.0 0.00 0.00 0.00 78 1014.6
20260509115628 49 272 0.0 0.0 0.00 0.00 0.00 77 1014.4
20260509115126 49 272 0.0 0.0 0.00 0.00 0.00 76 1014.5
20260509114624 49 272 0.0 0.0 0.00 0.00 0.00 77 1014.4
20260509114123 49 272 0.0 0.0 0.00 0.00 0.00 76 1014.7
20260509113621 49 272 0.0 1.0 0.00 0.00 0.00 77 1014.6
20260509113118 49 272 0.0 0.0 0.00 0.00 0.00 76 1014.7
20260509112614 49 272 1.0 2.0 0.00 0.00 0.00 75 1014.6
20260509112112 49 273 0.0 0.0 0.00 0.00 0.00 77 1014.4
20260509111608 48 273 0.0 0.0 0.00 0.00 0.00 77 1014.3
20260509111105 48 272 0.0 0.0 0.00 0.00 0.00 77 1014.3
20260509110602 48 272 0.0 0.0 0.00 0.00 0.00 76 1014.2
20260509110059 48 272 0.0 0.0 0.00 0.00 0.00 76 1014.3
20260509105558 48 272 1.0 1.0 0.00 0.00 0.00 74 1014.5
20260509105056 48 272 0.0 0.0 0.00 0.00 0.00 75 1014.3
20260509104552 47 272 0.0 1.0 0.00 0.00 0.00 74 1014.3
20260509104049 47 272 1.0 1.0 0.00 0.00 0.00 73 1014.6
20260509103546 47 272 0.0 0.0 0.00 0.00 0.00 72 1014.4
20260509103044 47 272 0.0 0.0 0.00 0.00 0.00 73 1014.4
20260509102541 47 272 0.0 0.0 0.00 0.00 0.00 73 1014.5
20260509102038 47 272 0.0 0.0 0.00 0.00 0.00 71 1014.6
20260509101534 47 272 0.0 0.0 0.00 0.00 0.00 71 1014.5
20260509101031 47 272 0.0 0.0 0.00 0.00 0.00 73 1014.3
20260509100528 48 272 0.0 0.0 0.00 0.00 0.00 69 1014.2
20260509100026 48 272 0.0 0.0 0.00 0.00 0.00 68 1014.1
20260509095522 48 272 0.0 0.0 0.00 0.00 0.00 68 1013.9
20260509095020 48 272 0.0 0.0 0.00 0.00 0.00 70 1014.3
20260509094516 47 272 0.0 0.0 0.00 0.00 0.00 72 1014.1
20260509094013 47 272 0.0 0.0 0.00 0.00 0.00 72 1014.3
20260509093511 47 272 0.0 0.0 0.00 0.00 0.00 73 1014.5
20260509093009 48 272 0.0 0.0 0.00 0.00 0.00 71 1014.3
20260509092506 48 272 0.0 0.0 0.00 0.00 0.00 71 1014.3
20260509092005 48 272 0.0 0.0 0.00 0.00 0.00 69 1014.6
20260509091502 48 272 0.0 0.0 0.00 0.00 0.00 69 1014.3
20260509090958 49 272 0.0 0.0 0.00 0.00 0.00 67 1014.3
20260509090456 49 272 0.0 0.0 0.00 0.00 0.00 67 1014.5
20260509085953 49 272 0.0 0.0 0.00 0.00 0.00 66 1014.5
20260509085450 50 272 0.0 0.0 0.00 0.00 0.00 65 1014.5
20260509084946 50 272 0.0 0.0 0.00 0.00 0.00 66 1014.6
20260509084443 50 272 0.0 0.0 0.00 0.00 0.00 64 1014.6
20260509083941 50 272 2.0 2.0 0.00 0.00 0.00 65 1014.7
20260509083438 51 268 2.0 2.0 0.00 0.00 0.00 63 1014.4
20260509082934 52 265 1.0 2.0 0.00 0.00 0.00 60 1014.4
20260509082432 52 249 2.0 3.0 0.00 0.00 0.00 59 1014.3
20260509081929 52 247 2.0 3.0 0.00 0.00 0.00 58 1014.2
20260509081426 52 242 2.0 3.0 0.00 0.00 0.00 56 1014.4
20260509080923 52 247 3.0 3.0 0.00 0.00 0.00 57 1014.4
20260509080421 52 262 2.0 2.0 0.00 0.00 0.00 58 1014.4
20260509075919 52 242 1.0 2.0 0.00 0.00 0.00 59 1014.2
20260509075416 52 242 2.0 3.0 0.00 0.00 0.00 57 1014.3
20260509074913 52 243 2.0 2.0 0.00 0.00 0.00 56 1013.9
20260509074411 52 241 2.0 2.0 0.00 0.00 0.00 58 1014.5
20260509073907 52 242 2.0 3.0 0.00 0.00 0.00 57 1014.3
20260509073404 52 246 2.0 3.0 0.00 0.00 0.00 57 1014.4
20260509072900 52 248 2.0 3.0 0.00 0.00 0.00 57 1014.5
20260509072356 53 244 3.0 3.0 0.00 0.00 0.00 55 1014.5
20260509071853 53 247 3.0 3.0 0.00 0.00 0.00 55 1014.4
20260509071350 52 239 2.0 3.0 0.00 0.00 0.00 56 1014.6
20260509070848 52 241 2.0 3.0 0.00 0.00 0.00 56 1014.4
20260509070344 52 240 2.0 3.0 0.00 0.00 0.00 57 1014.3
20260509065840 53 252 2.0 4.0 0.00 0.00 0.00 56 1014.4
20260509065337 52 257 2.0 3.0 0.00 0.00 0.00 58 1014.4
20260509064833 51 249 2.0 2.0 0.00 0.00 0.00 58 1014.3
20260509064330 51 244 2.0 3.0 0.00 0.00 0.00 58 1014.4
20260509063828 51 242 2.0 2.0 0.00 0.00 0.00 59 1014.1
20260509063324 50 244 2.0 2.0 0.00 0.00 0.00 62 1014.4
20260509062821 50 246 2.0 2.0 0.00 0.00 0.00 63 1014.6
20260509062318 49 245 2.0 3.0 0.00 0.00 0.00 62 1014.7
20260509061815 49 252 2.0 2.0 0.00 0.00 0.00 62 1014.6
20260509061314 48 256 2.0 2.0 0.00 0.00 0.00 66 1014.5
20260509060810 47 257 2.0 2.0 0.00 0.00 0.00 67 1014.7
20260509060307 48 256 2.0 2.0 0.00 0.00 0.00 66 1014.9
20260509055802 49 256 2.0 2.0 0.00 0.00 0.00 65 1014.7
20260509055258 48 257 2.0 2.0 0.00 0.00 0.00 66 1014.8
20260509054755 49 256 2.0 2.0 0.00 0.00 0.00 67 1014.8
20260509054252 48 257 0.0 0.0 0.00 0.00 0.00 67 1014.8
20260509053751 49 257 0.0 0.0 0.00 0.00 0.00 68 1014.9
20260509053247 49 257 0.0 0.0 0.00 0.00 0.00 68 1015.1
20260509052745 49 257 0.0 0.0 0.00 0.00 0.00 68 1015.2
20260509052243 49 257 0.0 0.0 0.00 0.00 0.00 66 1015.4
20260509051740 50 257 0.0 0.0 0.00 0.00 0.00 69 1015.1
20260509051238 51 257 0.0 0.0 0.00 0.00 0.00 62 1014.9
20260509050734 51 257 0.0 0.0 0.00 0.00 0.00 62 1015.4
20260509050231 51 257 0.0 0.0 0.00 0.00 0.00 64 1015.3
20260509045728 51 257 0.0 0.0 0.00 0.00 0.00 61 1015.6
20260509045225 51 257 1.0 1.0 0.00 0.00 0.00 63 1015.4
20260509044722 51 257 1.0 1.0 0.00 0.00 0.00 62 1015.7
20260509044220 51 257 1.0 1.0 0.00 0.00 0.00 62 1015.4
20260509043716 51 257 1.0 2.0 0.00 0.00 0.00 63 1015.3
20260509043212 50 257 1.0 2.0 0.00 0.00 0.00 65 1015.5
20260509042709 50 257 1.0 2.0 0.00 0.00 0.00 66 1015.5
20260509042205 50 256 1.0 2.0 0.00 0.00 0.00 66 1015.6
20260509041701 51 257 1.0 1.0 0.00 0.00 0.00 64 1015.6
20260509041159 51 256 1.0 1.0 0.00 0.00 0.00 61 1015.5
20260509040657 51 257 1.0 1.0 0.00 0.00 0.00 60 1015.6
20260509040153 52 257 1.0 2.0 0.00 0.00 0.00 59 1015.8
20260509035650 52 256 1.0 1.0 0.00 0.00 0.00 59 1015.7
20260509035147 52 256 1.0 2.0 0.00 0.00 0.00 58 1015.7
20260509034645 52 257 1.0 2.0 0.00 0.00 0.00 59 1015.9
20260509034142 52 257 1.0 2.0 0.00 0.00 0.00 59 1015.8
20260509033639 52 257 1.0 2.0 0.00 0.00 0.00 60 1015.9
20260509033136 52 257 1.0 2.0 0.00 0.00 0.00 60 1015.7
20260509032633 52 256 2.0 2.0 0.00 0.00 0.00 59 1015.8
20260509032130 51 256 2.0 2.0 0.00 0.00 0.00 60 1015.8
20260509031628 51 256 1.0 2.0 0.00 0.00 0.00 63 1015.8
20260509031125 51 256 0.0 0.0 0.00 0.00 0.00 63 1015.8
20260509030623 51 256 0.0 0.0 0.00 0.00 0.00 64 1015.7
20260509030120 50 256 0.0 0.0 0.00 0.00 0.00 65 1015.4
20260509025616 51 255 0.0 0.0 0.00 0.00 0.00 67 1015.2
20260509025112 52 256 0.0 0.0 0.00 0.00 0.00 59 1015.6
20260509024607 51 256 0.0 0.0 0.00 0.00 0.00 59 1015.7
20260509024103 52 255 0.0 0.0 0.00 0.00 0.00 58 1015.8
20260509023601 51 256 0.0 0.0 0.00 0.00 0.00 60 1015.8
20260509023058 50 256 0.0 0.0 0.00 0.00 0.00 65 1015.8
20260509022554 50 256 1.0 2.0 0.00 0.00 0.00 67 1015.6
20260509022053 51 255 2.0 2.0 0.00 0.00 0.00 64 1015.7
20260509021549 51 256 1.0 2.0 0.00 0.00 0.00 59 1015.6
20260509021046 51 256 1.0 2.0 0.00 0.00 0.00 60 1015.8
20260509020545 51 256 2.0 2.0 0.00 0.00 0.00 62 1015.9
20260509020041 51 256 1.0 1.0 0.00 0.00 0.00 62 1015.9
20260509015540 52 255 1.0 2.0 0.00 0.00 0.00 60 1015.7
20260509015037 52 256 1.0 2.0 0.00 0.00 0.00 58 1015.8
20260509014533 51 256 1.0 2.0 0.00 0.00 0.00 61 1016.0
20260509014030 50 256 1.0 2.0 0.00 0.00 0.00 63 1016.1
20260509013527 50 255 0.0 0.0 0.00 0.00 0.00 64 1016.0
20260509013022 51 255 0.0 0.0 0.00 0.00 0.00 61 1015.8
20260509012519 53 255 0.0 0.0 0.00 0.00 0.00 58 1015.7
20260509012016 52 255 0.0 0.0 0.00 0.00 0.00 56 1015.7
20260509011514 51 255 0.0 0.0 0.00 0.00 0.00 58 1015.5
20260509011011 51 255 1.0 1.0 0.00 0.00 0.00 60 1015.4
20260509010509 53 255 1.0 2.0 0.00 0.00 0.00 56 1015.4
20260509010006 53 255 1.0 1.0 0.00 0.00 0.00 54 1015.6
20260509005504 53 255 1.0 2.0 0.00 0.00 0.00 53 1015.5
20260509005003 53 255 2.0 2.0 0.00 0.00 0.00 54 1015.4
20260509004500 52 255 2.0 2.0 0.00 0.00 0.00 55 1015.6
20260509003957 52 252 2.0 2.0 0.00 0.00 0.00 55 1015.5
20260509003456 52 252 2.0 2.0 0.00 0.00 0.00 55 1015.7
20260509002952 52 251 2.0 2.0 0.00 0.00 0.00 56 1015.5
20260509002450 52 246 2.0 2.0 0.00 0.00 0.00 56 1015.8
20260509001947 53 246 1.0 2.0 0.00 0.00 0.00 54 1015.7
20260509001444 54 246 2.0 2.0 0.00 0.00 0.00 52 1015.6
20260509000940 54 244 2.0 2.0 0.00 0.00 0.00 52 1015.5
20260509000440 55 240 2.0 3.0 0.00 0.00 0.00 50 1015.5
20260508235934 55 243 2.0 3.0 0.00 0.00 0.00 49 1015.5
20260508235432 56 243 4.0 4.0 0.00 0.00 0.00 47 1015.5
20260508234928 56 262 4.0 4.0 0.00 0.00 0.00 48 1015.5
20260508234426 56 268 4.0 4.0 0.00 0.00 0.00 48 1015.4
20260508233923 57 252 4.0 6.0 0.00 0.00 0.00 46 1015.4
20260508233423 57 256 3.0 4.0 0.00 0.00 0.00 47 1015.4
20260508232919 57 272 2.0 4.0 0.00 0.00 0.00 48 1015.6
20260508232416 57 253 2.0 3.0 0.00 0.00 0.00 48 1015.5
20260508231913 57 261 4.0 6.0 0.00 0.00 0.00 46 1015.3
20260508231410 58 285 4.0 7.0 0.00 0.00 0.00 45 1015.3
20260508230907 58 239 3.0 4.0 0.00 0.00 0.00 46 1015.4
20260508230404 58 249 3.0 6.0 0.00 0.00 0.00 46 1015.4
20260508225901 59 272 4.0 4.0 0.00 0.00 0.00 44 1015.5
20260508225357 59 245 6.0 7.0 0.00 0.00 0.00 44 1015.3
20260508224855 59 260 5.0 7.0 0.00 0.00 0.00 45 1015.5
20260508224353 59 270 6.0 9.0 0.00 0.00 0.00 44 1015.4
20260508223850 60 287 4.0 6.0 0.00 0.00 0.00 44 1015.3
20260508223347 59 234 2.0 6.0 0.00 0.00 0.00 45 1015.5
20260508222845 59 267 6.0 7.0 0.00 0.00 0.00 44 1015.4
20260508222342 59 272 7.0 10.0 0.00 0.00 0.00 44 1015.4
20260508221838 59 296 6.0 8.0 0.00 0.00 0.00 44 1015.5
20260508221334 59 236 5.0 11.0 0.00 0.00 0.00 44 1015.4
20260508220830 59 262 6.0 8.0 0.00 0.00 0.00 44 1015.4
20260508220327 59 250 3.0 7.0 0.00 0.00 0.00 44 1015.5
20260508215823 60 281 3.0 4.0 0.00 0.00 0.00 45 1015.6
20260508215320 60 265 4.0 8.0 0.00 0.00 0.00 45 1015.5
20260508214817 59 263 6.0 10.0 0.00 0.00 0.00 45 1015.4
20260508214314 60 287 4.0 9.0 0.00 0.00 0.00 44 1015.5
20260508213811 60 294 2.0 6.0 0.00 0.00 0.00 43 1015.7
20260508213308 59 289 3.0 7.0 0.00 0.00 0.00 46 1015.5
20260508212804 59 303 4.0 6.0 0.00 0.00 0.00 46 1015.6
20260508212300 60 14 4.0 6.0 0.00 0.00 0.00 46 1015.7
20260508211756 58 269 6.0 9.0 0.00 0.00 0.00 46 1015.7
20260508211252 58 262 5.0 9.0 0.00 0.00 0.00 47 1015.7
20260508210750 58 274 4.0 8.0 0.00 0.00 0.00 47 1015.6
20260508210246 58 242 7.0 9.0 0.00 0.00 0.00 45 1015.9
20260508205743 60 244 8.0 11.0 0.00 0.00 0.00 44 1015.9
20260508205239 60 279 5.0 10.0 0.00 0.00 0.00 45 1015.9
20260508204736 62 292 5.0 7.0 0.00 0.00 0.00 43 1015.8
20260508204227 60 240 5.0 7.0 0.00 0.00 0.00 45 1015.7
20260508203723 60 279 7.0 11.0 0.00 0.00 0.00 45 1015.7
20260508203219 60 263 6.0 8.0 0.00 0.00 0.00 44 1015.8
20260508202715 59 268 6.0 7.0 0.00 0.00 0.00 45 1015.9
20260508202213 59 233 9.0 14.0 0.00 0.00 0.00 44 1016.0
20260508201709 59 256 8.0 13.0 0.00 0.00 0.00 47 1016.0
20260508201206 57 273 5.0 8.0 0.00 0.00 0.00 49 1015.9
20260508200703 58 272 5.0 10.0 0.00 0.00 0.00 46 1016.2
20260508200159 57 249 4.0 7.0 0.00 0.00 0.00 48 1016.4
20260508195655 57 251 6.0 9.0 0.00 0.00 0.00 47 1016.2
20260508195152 57 259 6.0 9.0 0.00 0.00 0.00 47 1016.5
20260508194648 57 239 6.0 9.0 0.00 0.00 0.00 47 1016.5
20260508194145 57 313 4.0 10.0 0.00 0.00 0.00 47 1016.6
20260508193642 58 296 3.0 7.0 0.00 0.00 0.00 46 1016.6
20260508193139 57 285 5.0 9.0 0.00 0.00 0.00 47 1016.8
20260508192636 58 231 4.0 9.0 0.00 0.00 0.00 46 1016.8
20260508192133 59 282 4.0 9.0 0.00 0.00 0.00 45 1016.7
20260508191630 58 276 5.0 10.0 0.00 0.00 0.00 45 1016.9
20260508191126 57 242 5.0 7.0 0.00 0.00 0.00 47 1016.8
20260508190624 58 259 7.0 13.0 0.00 0.00 0.00 45 1016.8
20260508190120 62 274 8.0 11.0 0.00 0.00 0.00 43 1017.0
20260508185617 60 287 6.0 8.0 0.00 0.00 0.00 45 1016.8
20260508185115 58 264 4.0 9.0 0.00 0.00 0.00 46 1016.9
20260508184612 57 259 6.0 8.0 0.00 0.00 0.00 46 1017.1
20260508184109 59 299 4.0 8.0 0.00 0.00 0.00 46 1017.1
20260508183605 58 298 2.0 10.0 0.00 0.00 0.00 46 1017.0
20260508183101 58 264 4.0 8.0 0.00 0.00 0.00 47 1017.0
20260508182558 57 272 4.0 9.0 0.00 0.00 0.00 46 1017.0
20260508182055 57 263 10.0 11.0 0.00 0.00 0.00 46 1017.3
20260508181555 58 251 11.0 13.0 0.00 0.00 0.00 44 1017.1
20260508181054 60 280 9.0 11.0 0.00 0.00 0.00 43 1017.2
20260508180550 58 286 4.0 6.0 0.00 0.00 0.00 44 1017.3
20260508180046 61 260 11.0 13.0 0.00 0.00 0.00 42 1017.1
20260508175543 62 292 7.0 10.0 0.00 0.00 0.00 46 1017.2
20260508175040 61 234 3.0 4.0 0.00 0.00 0.00 41 1017.1
20260508174538 57 265 3.0 9.0 0.00 0.00 0.00 46 1017.2
20260508174034 58 267 8.0 13.0 0.00 0.00 0.00 43 1017.2
20260508173531 56 315 7.0 9.0 0.00 0.00 0.00 46 1017.4
20260508173027 58 279 9.0 13.0 0.00 0.00 0.00 43 1017.4
20260508172524 59 263 0.0 3.0 0.00 0.00 0.00 44 1017.3
20260508172021 58 280 2.0 4.0 0.00 0.00 0.00 42 1017.5